Wind_Speed
5 6 6 7 8 9 9 10 10 11 11 12 13 13 14 15 16 17 19 20 22 25 27 29 31 33 34 35 36 36 37 38 38 39 40 42 43 43 42 42 43 42 42 41 40 39 37 36 34 32 31 30 27 25 23 22 21 21 20 18 16 14 11 10 8 4 4 4 7 9 6 8 10 11 13 15 16 19 21 23 25 26 27 29 29 29 28 27
7 8 8 9 10 11 12 12 13 13 13 14 14 15 15 16 16 17 18 19 20 22 24 26 28 30 32 34 35 36 37 37 38 39 40 41 42 42 42 42 43 43 43 42 42 41 39 38 36 34 33 31 30 27 25 24 23 22 22 20 18 15 14 13 10 5 4 3 7 10 7 8 9 10 13 14 15 17 20 22 24 25 26 29 29 29 28 27
9 10 10 11 12 13 13 14 15 15 16 16 17 17 17 17 18 18 19 19 20 21 22 23 25 27 30 32 34 35 36 37 38 38 39 40 41 42 42 42 43 43 43 43 43 42 41 40 38 37 35 33 32 30 28 26 25 24 23 22 20 18 17 15 12 7 5 3 5 7 6 6 7 9 11 13 14 16 18 20 23 24 25 28 29 29 28 27
10 11 12 13 13 14 15 16 17 17 18 19 19 19 20 20 20 20 20 21 21 22 22 23 24 25 27 29 31 33 34 36 37 38 38 39 40 41 42 42 43 44 44 44 44 44 43 42 41 39 37 36 34 33 31 29 27 26 24 24 22 21 19 17 14 8 5 2 2 5 7 5 4 7 8 11 13 15 17 19 21 23 24 27 29 29 28 27
12 13 14 14 15 16 16 17 18 19 19 20 21 21 22 22 23 23 23 23 23 24 24 24 24 25 26 27 28 30 32 33 35 36 37 39 40 40 41 42 43 44 44 45 45 44 44 43 42 41 40 38 37 35 33 30 29 28 26 25 24 23 21 19 15 10 7 3 1 5 8 7 4 4 4 8 12 13 15 17 19 21 23 25 27 28 27 27
14 15 15 16 17 17 18 19 20 20 21 22 22 23 24 24 25 25 25 26 26 26 26 26 26 26 26 26 27 28 29 31 32 34 36 38 39 40 41 42 43 44 44 45 45 45 44 44 43 43 42 41 39 37 35 33 31 30 29 27 25 24 22 20 17 13 11 6 5 8 9 9 6 3 2 5 9 11 13 15 17 19 21 24 26 27 27 26
16 17 17 18 19 19 20 20 21 22 22 23 23 24 25 25 26 27 27 28 28 28 29 29 28 28 28 28 28 28 28 29 30 32 34 36 38 40 41 41 43 44 45 45 45 45 44 44 44 44 44 43 41 39 37 36 34 32 31 29 27 26 25 22 19 16 14 9 9 10 8 9 8 4 3 2 6 8 11 13 15 17 19 22 24 26 26 26
18 18 19 20 21 21 22 22 23 24 24 25 25 25 26 26 27 27 28 29 29 30 31 31 31 30 30 29 29 29 29 29 30 31 32 34 36 38 40 41 42 43 44 45 45 45 44 44 45 45 45 45 43 41 39 38 36 35 33 31 29 28 27 24 22 20 17 13 11 10 9 9 9 6 5 3 3 6 8 10 12 15 18 20 22 24 25 25
20 21 21 22 23 23 24 24 25 25 26 26 26 27 27 27 28 28 29 29 30 31 31 32 32 32 32 32 31 31 31 31 31 31 32 32 34 35 38 40 41 43 44 45 45 44 43 44 45 46 46 46 45 44 42 40 39 37 35 33 31 30 28 26 24 22 19 18 13 9 10 10 9 8 6 4 3 4 6 7 9 12 15 18 20 22 23 24
22 23 23 24 25 25 26 26 27 27 28 28 28 28 28 29 29 29 29 30 30 31 31 32 33 33 34 33 33 33 34 33 33 34 34 33 33 34 36 38 40 42 43 44 44 42 42 43 45 46 46 46 46 45 44 42 40 39 37 35 34 32 30 28 26 24 23 22 17 11 13 13 11 10 7 6 5 4 5 5 6 10 13 15 18 20 22 22
24 25 26 26 27 27 28 29 29 29 30 30 30 30 30 30 30 30 30 30 31 31 31 32 32 33 34 34 34 35 35 35 36 36 36 35 34 34 35 36 38 40 42 43 43 41 42 44 45 46 47 47 47 46 45 44 42 41 39 38 36 34 32 30 28 27 26 26 20 14 16 18 16 14 11 9 7 5 4 2 4 7 10 13 15 18 19 21
26 27 28 28 29 29 30 31 31 31 31 31 31 31 32 32 32 32 31 31 31 31 32 32 32 33 34 34 34 35 36 37 38 38 38 37 36 36 35 36 37 39 41 42 41 41 43 44 45 46 47 48 48 47 46 45 44 43 41 40 38 36 34 33 31 30 29 28 23 17 16 19 21 19 15 12 10 6 3 0 1 5 8 11 13 15 17 18
28 29 30 30 31 31 31 32 32 33 33 33 33 33 33 33 33 33 33 33 32 32 32 33 33 33 34 34 34 35 36 38 39 39 39 39 39 38 37 37 37 38 39 40 39 41 43 45 45 46 47 48 49 48 47 47 46 45 44 42 40 39 37 35 33 32 31 30 27 21 16 19 22 21 17 14 11 7 4 2 1 2 5 8 10 12 14 16
30 30 31 31 32 32 32 33 33 34 34 35 34 34 34 34 34 34 34 34 34 33 33 34 34 34 34 34 35 35 36 37 38 39 40 41 41 40 40 39 38 38 38 38 38 40 43 45 45 46 46 48 49 49 48 47 48 47 46 44 42 41 39 37 35 33 33 32 29 25 19 19 23 20 16 14 12 8 6 5 4 1 2 5 7 8 11 14
31 32 32 32 33 33 34 34 34 34 35 35 35 36 36 35 35 35 35 35 34 34 34 34 34 35 35 35 35 35 35 37 38 38 39 40 41 42 42 41 40 40 39 38 39 40 42 44 44 45 46 48 49 50 49 49 50 49 47 46 44 42 40 38 37 36 35 33 31 27 22 22 24 21 17 15 13 10 8 7 6 3 1 2 4 6 8 12
33 34 34 34 35 35 35 35 35 35 36 36 36 37 37 37 36 36 36 35 35 35 35 35 35 35 35 35 35 35 36 37 37 38 39 40 41 42 43 43 43 42 41 40 40 40 42 43 43 44 46 48 49 50 50 51 51 50 48 47 45 43 42 40 38 38 37 35 32 29 27 27 27 24 20 16 14 13 11 8 7 6 4 2 1 4 6 9
36 36 36 36 37 37 37 37 37 37 37 38 38 38 38 38 38 37 37 36 36 35 35 35 35 35 35 36 36 36 36 37 37 38 39 40 40 42 43 43 44 44 43 42 42 42 42 42 42 43 45 47 49 51 52 52 52 51 49 48 46 44 43 41 40 39 38 36 33 31 31 31 31 28 23 19 17 16 13 10 9 8 6 5 2 2 4 6
37 38 38 38 39 39 39 39 39 39 39 39 40 40 40 40 39 38 38 37 37 36 35 35 35 35 35 36 36 37 37 37 38 38 39 39 40 41 43 44 44 45 45 44 44 44 44 43 42 42 44 47 49 51 53 52 51 51 50 49 48 46 45 43 42 41 38 36 33 33 34 35 34 32 27 22 20 18 15 11 10 10 9 8 5 2 2 3
39 39 39 40 40 40 41 41 41 41 40 41 41 41 41 41 40 39 38 38 37 36 35 35 35 35 35 36 37 37 37 37 38 39 39 40 41 42 43 44 45 45 45 46 46 46 46 46 44 44 45 48 50 51 52 51 51 51 50 50 49 49 47 45 43 41 37 34 33 32 33 36 38 38 32 25 22 21 17 13 12 12 11 10 8 5 3 2
40 41 41 42 42 42 42 42 42 42 42 42 42 41 41 41 40 39 38 38 37 36 36 35 35 35 36 36 37 37 37 38 39 40 40 41 41 42 44 45 46 46 46 46 47 47 48 48 48 48 49 48 49 50 50 50 51 51 51 52 51 51 50 47 45 42 37 34 32 29 29 35 40 40 34 28 26 24 20 16 15 15 15 13 11 8 5 3
42 42 43 43 44 43 43 43 43 43 43 43 42 42 41 40 39 39 38 37 37 36 35 35 35 35 36 36 37 37 38 39 39 40 41 42 42 43 44 45 46 47 48 48 48 48 49 50 51 51 50 49 48 49 49 49 50 51 52 53 52 52 52 50 48 45 44 40 36 34 33 36 38 38 35 31 29 28 23 20 18 18 17 16 14 11 8 6
44 44 44 45 45 45 45 45 45 44 44 43 42 41 40 39 39 38 37 36 36 36 35 35 35 35 35 36 37 37 38 39 40 41 41 42 42 43 44 45 46 48 49 49 49 49 50 51 52 52 51 50 49 48 48 48 49 50 52 54 54 54 55 53 50 49 51 49 44 41 37 35 37 38 37 35 33 31 27 23 21 20 19 18 16 14 11 9
45 45 46 46 46 46 46 46 46 45 45 44 42 41 39 38 37 36 35 34 34 34 34 33 33 34 34 35 36 37 37 38 39 40 41 41 42 42 43 44 46 47 48 50 50 51 51 52 51 51 51 51 51 50 48 47 48 50 53 55 55 55 56 55 53 52 54 54 51 48 42 38 39 39 37 35 34 33 30 26 24 23 21 20 19 17 14 11
46 46 47 47 47 47 47 47 46 45 44 44 42 40 38 36 35 34 33 32 32 32 31 31 32 32 33 34 35 36 36 37 38 38 39 40 41 41 42 43 45 46 48 49 50 51 52 52 52 51 51 52 53 54 52 49 49 50 53 56 56 57 57 55 55 55 55 56 55 53 47 40 40 40 38 35 34 33 31 28 26 25 24 22 21 19 17 14
47 47 47 48 48 48 47 46 45 45 44 43 41 39 36 34 32 31 30 30 30 29 29 29 29 30 31 32 33 33 34 35 36 36 37 38 39 40 41 42 43 45 46 47 48 50 51 52 53 53 53 53 54 56 55 53 52 52 54 56 56 57 57 57 57 58 56 57 56 55 51 44 41 42 40 39 38 35 33 31 28 28 27 24 23 22 19 17
48 48 48 48 48 47 46 45 45 44 43 41 39 36 34 31 29 28 27 27 27 26 27 27 27 29 30 30 31 31 32 33 33 34 35 36 37 38 39 40 41 42 44 45 46 48 50 51 53 53 54 54 55 57 57 56 55 55 56 56 56 57 57 58 58 58 57 57 56 56 55 51 46 44 43 43 42 39 37 34 31 30 30 27 25 24 21 19
48 48 48 48 47 46 44 44 44 43 41 39 37 34 31 28 26 25 25 24 24 24 24 25 26 27 28 28 29 29 29 30 31 32 33 34 35 36 38 39 40 41 41 42 44 46 48 50 51 52 54 55 56 58 58 58 57 59 59 57 56 56 57 58 58 58 58 57 57 57 56 55 51 47 46 45 43 42 40 37 34 33 32 30 28 27 24 21
49 49 48 47 45 44 43 43 42 41 39 38 36 33 30 26 24 23 22 22 22 22 22 24 24 25 26 27 27 27 28 28 29 30 31 32 34 35 36 37 39 39 39 40 42 45 47 48 50 51 53 55 57 58 59 59 59 61 61 58 56 55 56 57 57 57 57 58 59 58 56 56 55 52 49 47 44 43 42 39 36 35 34 32 31 29 26 24
49 48 46 45 44 43 43 42 40 39 38 37 35 32 28 25 23 22 21 20 20 20 21 22 23 24 25 25 26 26 26 27 27 28 29 30 32 33 35 36 38 38 39 40 41 43 44 46 48 50 51 53 55 57 58 59 61 63 62 59 56 54 54 55 56 56 56 59 62 62 60 57 57 56 53 50 45 42 42 41 38 38 36 35 33 31 29 26
47 45 44 44 44 43 42 40 39 38 36 35 33 31 27 24 22 21 20 20 20 20 20 21 22 23 23 24 24 24 25 26 27 27 29 30 32 33 35 36 37 38 39 40 41 42 43 45 48 49 50 51 53 56 57 59 62 63 62 60 57 54 54 54 56 59 59 61 65 66 64 60 57 56 56 54 50 44 43 42 41 41 39 37 36 34 32 28
44 44 43 44 44 42 40 38 37 36 35 33 31 29 26 23 22 21 21 20 19 19 19 20 22 22 23 23 24 23 23 25 26 27 29 30 32 34 35 36 37 39 39 40 42 43 44 46 47 48 49 51 53 55 56 58 61 62 61 61 60 58 57 56 59 64 63 64 66 66 66 64 60 56 55 55 53 49 46 44 44 43 42 40 38 36 34 31
43 43 44 44 42 40 38 36 35 34 33 31 30 28 25 22 21 21 21 20 19 18 18 20 21 22 22 23 24 24 23 24 26 27 28 30 32 34 35 37 38 39 40 42 43 44 46 48 48 50 52 54 55 56 57 59 60 60 60 61 63 62 60 60 63 66 66 65 66 67 67 67 64 60 56 55 53 51 50 48 46 45 44 42 40 38 37 33
44 44 44 43 40 37 35 34 32 31 31 30 28 26 23 22 21 20 21 21 20 19 18 20 21 21 22 24 25 26 26 26 26 27 28 30 32 34 35 37 38 40 41 43 44 46 49 50 51 53 55 57 59 59 60 61 61 61 61 62 64 63 63 65 65 66 66 66 66 66 67 67 67 64 60 57 54 52 53 51 49 47 45 43 42 41 39 36
44 43 42 40 37 35 33 30 29 29 29 28 27 25 22 21 20 19 20 21 20 19 18 19 21 22 23 25 26 27 28 28 28 28 29 30 33 34 36 37 38 40 41 43 45 47 50 52 53 56 59 61 63 64 64 65 64 64 64 64 64 64 66 67 68 68 67 67 66 66 67 68 69 68 64 60 56 54 54 54 51 49 47 44 44 44 42 40
43 41 39 37 35 32 30 27 27 28 27 27 26 24 22 20 19 19 20 20 20 19 19 20 22 23 24 26 27 28 29 30 30 31 31 32 34 36 37 38 39 40 41 43 45 47 50 53 55 57 61 63 65 66 67 68 69 69 68 68 67 67 68 69 70 70 68 67 67 66 67 69 70 70 67 65 60 55 55 56 54 51 49 47 47 47 46 43
40 38 36 34 32 29 27 25 25 26 26 26 25 23 21 20 19 19 20 20 20 20 20 22 23 24 25 27 28 29 30 31 32 33 35 35 36 37 38 39 40 40 41 42 44 45 47 50 52 54 57 60 63 65 67 69 70 71 72 73 71 71 72 72 71 71 70 68 68 67 68 69 70 70 69 68 65 59 57 57 56 54 51 50 50 49 47 45
36 34 33 31 29 27 25 24 24 24 25 25 24 22 21 19 19 20 20 21 21 20 21 24 25 26 28 30 30 30 32 33 33 35 37 38 38 38 39 39 40 40 40 40 41 42 43 44 46 48 51 55 57 60 63 66 68 71 74 75 75 75 75 74 73 73 73 71 68 68 68 68 70 71 70 69 68 64 60 58 57 55 53 52 51 50 49 47
33 32 31 28 27 26 24 23 23 23 24 23 22 21 21 20 19 20 20 21 22 22 23 25 27 28 29 31 32 32 33 35 35 36 37 37 38 38 38 38 39 39 38 38 39 39 39 40 41 42 46 49 52 54 58 61 65 69 73 75 76 78 79 78 77 76 76 74 70 68 68 69 70 72 72 70 69 67 64 60 58 56 54 52 51 50 49 48
30 30 28 26 26 25 25 24 23 23 23 23 22 21 21 20 20 20 21 23 24 23 24 27 29 29 30 32 34 34 36 37 36 37 37 36 36 36 36 37 37 37 37 37 38 38 38 38 37 38 40 43 47 50 53 57 61 66 71 74 78 80 82 82 81 79 77 77 75 71 68 68 70 73 73 71 70 69 67 63 59 57 56 54 53 52 50 48
29 28 27 26 26 26 25 25 24 24 24 24 23 22 22 22 22 22 23 25 25 25 26 28 30 31 31 32 34 35 37 38 38 38 37 36 36 35 35 36 36 36 36 37 37 37 36 36 35 34 34 37 41 45 48 53 58 64 69 74 78 81 83 84 84 82 79 79 79 75 70 68 70 73 74 72 71 70 68 65 61 58 56 55 55 54 51 50
28 27 27 27 27 27 27 26 26 26 26 26 26 25 25 24 24 24 25 26 27 27 28 30 31 32 33 34 35 37 38 39 39 40 39 37 36 36 35 36 35 35 35 36 36 36 35 34 33 32 31 32 35 40 44 49 54 61 68 73 77 80 84 86 87 85 82 80 79 77 73 70 69 71 73 73 72 71 69 66 63 59 55 53 55 56 53 51
28 29 29 29 29 29 29 29 30 29 29 28 28 28 28 28 27 27 28 28 29 29 30 31 33 34 35 36 37 38 40 40 40 41 41 39 38 37 36 35 35 34 34 35 35 34 33 33 32 31 29 29 31 35 40 44 50 58 65 72 76 80 84 87 88 86 84 81 80 79 77 74 72 72 73 74 73 72 70 69 67 61 54 50 52 55 56 53
30 31 32 33 33 33 32 33 33 33 33 32 31 30 30 30 30 30 31 31 31 32 32 33 34 36 37 38 38 40 41 41 41 42 42 41 39 38 37 36 35 34 34 34 35 34 33 33 32 30 29 27 28 32 35 39 45 53 60 68 75 79 84 88 89 87 86 85 83 82 80 77 75 74 74 75 75 74 73 72 71 66 58 53 51 52 57 56
34 35 36 37 36 35 35 35 35 35 35 35 34 33 33 33 33 33 33 34 34 34 35 35 36 37 39 40 40 41 41 42 42 43 44 42 41 39 38 37 35 33 33 34 34 34 33 33 32 30 28 26 25 28 31 34 40 47 53 61 70 77 82 88 90 89 88 88 87 85 83 79 78 76 75 76 76 76 76 75 75 72 65 61 57 53 57 60
37 38 39 39 37 36 35 35 34 33 34 34 34 34 35 36 36 36 36 37 37 37 37 38 38 39 40 41 42 42 41 42 43 44 44 43 41 40 39 38 36 34 33 33 33 34 34 33 32 30 28 26 24 26 29 31 35 41 47 54 63 72 79 86 90 91 90 91 90 87 84 81 81 79 77 77 77 79 79 77 77 77 71 66 62 56 57 62
38 39 40 39 37 35 35 34 32 31 32 33 33 33 34 35 36 37 38 39 39 40 40 41 41 41 41 42 44 43 42 42 43 43 43 43 42 40 39 38 36 34 33 32 32 33 34 34 33 31 28 26 24 25 27 29 31 35 43 49 56 65 74 80 87 91 93 93 92 88 85 83 83 81 79 79 79 80 80 79 79 80 77 72 65 60 60 64
38 38 39 39 38 36 36 34 32 31 32 32 32 32 33 33 34 35 37 38 39 40 41 41 41 42 42 43 44 43 42 43 42 42 42 42 42 40 39 37 36 34 33 32 32 33 34 34 33 31 29 26 25 25 26 27 28 31 38 46 52 59 67 74 83 91 94 94 92 90 86 84 83 83 81 80 80 80 81 80 82 82 81 77 70 64 64 66
38 38 37 38 38 37 37 35 34 33 33 34 33 32 33 33 33 34 35 37 38 38 39 40 40 40 41 43 44 43 42 41 41 40 40 41 41 39 38 37 35 33 33 32 32 33 34 34 33 31 29 26 25 25 26 27 28 29 34 42 49 56 62 69 79 88 93 93 92 90 88 86 85 84 83 81 80 80 81 82 83 83 83 81 75 68 68 67
39 38 37 36 37 37 36 36 35 34 34 35 34 34 34 34 34 35 36 37 37 37 38 39 39 39 40 43 44 43 41 40 39 39 39 39 39 38 37 36 34 32 32 32 32 33 33 34 33 32 29 25 24 25 26 26 28 29 31 37 45 52 58 65 74 83 90 92 90 89 89 87 86 85 84 83 81 81 82 83 85 85 84 83 78 70 69 69
40 39 37 36 36 36 35 36 36 35 35 35 35 34 34 34 34 36 37 38 38 38 39 40 39 39 41 42 43 43 41 39 38 38 38 37 37 36 35 34 33 31 31 32 32 32 33 34 34 32 29 25 23 25 26 27 28 29 31 34 41 48 54 60 68 77 87 88 82 83 88 86 85 87 86 83 82 82 83 84 85 86 84 84 81 73 71 72
40 39 38 37 36 35 35 34 35 35 33 34 34 34 34 33 33 35 36 37 39 39 39 40 39 39 40 41 42 42 40 38 37 38 37 36 35 35 34 33 31 30 31 31 31 31 33 33 33 32 29 26 23 24 26 28 28 30 32 33 38 45 50 55 62 71 83 84 74 75 87 87 84 86 87 86 84 83 84 84 85 87 86 85 85 79 75 75
40 39 39 38 37 36 35 34 34 33 32 33 34 34 34 33 33 34 35 36 38 38 39 39 40 39 40 41 41 41 39 37 36 36 37 36 35 34 33 31 30 30 31 31 30 31 32 33 33 32 30 27 24 22 25 28 29 31 34 35 37 43 48 52 58 66 78 83 76 74 86 90 88 88 88 88 87 85 85 85 85 88 88 87 88 85 81 80
Wind_Direction
274 275 275 276 276 276 274 271 268 266 265 264 263 262 260 259 257 256 255 254 252 251 250 249 248 247 246 244 243 242 241 240 240 239 239 239 239 238 238 238 239 239 239 239 239 239 239 239 237 237 238 238 237 235 233 232 231 233 237 238 232 231 233 243 258 277 315 340 359 2 11 2 15 30 34 37 31 30 32 35 35 30 26 27 32 35 38 40
273 273 274 274 275 275 275 275 273 271 269 267 265 264 262 261 260 259 258 258 256 255 254 252 250 249 248 247 245 244 242 241 240 240 240 240 240 239 238 238 239 240 239 240 239 239 239 239 238 237 238 237 237 235 233 231 231 231 234 238 236 233 233 239 247 255 290 332 5 6 17 7 12 19 24 34 29 27 31 34 36 31 27 26 30 34 39 41
270 271 272 272 272 272 271 272 272 272 271 270 268 267 265 264 262 261 260 259 258 258 257 255 254 252 251 249 248 247 245 243 242 241 241 240 241 240 239 238 239 239 239 240 239 239 239 239 238 238 237 237 236 235 234 231 231 230 230 234 236 235 234 238 240 243 280 317 11 353 341 342 358 359 10 32 28 24 29 33 36 33 28 26 29 33 38 42
271 272 272 272 272 271 271 271 270 270 269 269 268 267 267 266 264 263 262 261 259 259 258 257 257 255 254 252 250 249 247 246 245 243 242 242 241 241 240 238 238 239 239 239 239 239 239 239 239 238 237 237 236 235 234 231 230 229 228 230 232 234 235 237 237 232 258 294 22 322 303 307 341 347 0 34 31 22 25 30 37 35 30 26 27 32 37 42
275 275 275 275 274 274 273 272 271 271 270 268 268 267 266 265 265 264 263 262 261 260 259 258 257 257 256 255 253 251 249 248 247 245 244 243 242 242 241 239 238 238 238 238 239 239 239 239 239 239 238 237 236 235 234 232 231 230 228 227 229 232 234 235 233 226 233 241 277 280 283 284 304 332 347 34 35 24 23 27 34 37 32 28 27 31 36 42
278 278 278 277 277 276 275 275 274 273 272 271 269 268 267 265 264 263 263 262 261 261 260 259 258 258 257 256 256 254 252 250 248 247 246 245 244 242 241 240 239 238 238 238 238 238 238 238 239 239 238 237 236 235 234 233 231 230 228 226 226 229 232 233 229 225 227 232 241 252 266 275 293 316 308 31 37 25 23 22 29 37 35 29 28 30 35 41
279 279 279 279 279 279 278 277 276 275 274 273 272 271 269 267 265 264 263 262 261 261 260 260 259 258 257 257 257 256 255 252 249 247 246 245 245 244 243 241 240 239 238 237 237 237 237 238 238 239 239 237 237 236 234 233 231 230 229 226 225 226 230 230 226 225 226 233 239 238 250 264 275 275 257 4 29 19 24 20 22 36 37 31 29 30 34 41
280 280 280 280 280 279 279 279 278 277 276 275 274 273 272 270 268 266 264 263 261 260 260 260 260 259 258 257 257 256 255 254 251 249 247 246 246 245 244 243 241 240 239 238 236 236 236 237 238 238 238 237 236 236 234 233 232 230 229 226 224 224 227 227 226 225 226 231 232 227 232 246 251 239 237 289 3 12 21 18 16 33 39 32 30 31 34 39
282 282 282 281 281 281 280 280 279 278 277 276 275 274 273 272 271 269 267 265 263 261 260 259 259 259 259 258 257 256 255 254 253 251 248 246 245 245 244 243 242 241 240 239 237 236 235 236 236 237 237 237 236 236 235 234 232 230 229 227 225 223 224 225 225 224 225 227 224 222 223 226 229 216 220 271 305 352 10 15 13 30 40 35 30 31 34 39
285 285 285 284 284 283 282 282 281 280 279 278 277 276 275 274 273 271 270 268 267 264 262 260 258 258 257 257 256 256 255 254 253 251 249 246 244 244 244 243 242 241 241 240 238 236 236 235 235 236 236 236 236 236 235 234 233 231 229 227 226 223 221 223 223 223 225 227 225 224 216 206 210 210 215 254 268 310 350 14 10 26 41 39 31 31 35 39
289 289 288 287 287 286 285 284 282 281 280 279 279 278 277 276 274 273 272 270 269 267 265 263 260 258 257 256 255 255 255 254 252 251 251 249 246 244 243 243 243 242 241 240 238 237 236 235 234 234 234 235 235 235 235 235 234 232 230 228 226 223 221 220 221 222 224 226 223 221 214 205 209 218 225 240 247 277 324 14 4 20 42 42 33 31 35 39
293 293 292 291 290 289 287 286 284 282 281 280 279 279 278 277 276 275 273 272 270 269 268 265 263 260 257 256 254 253 254 253 253 252 251 250 248 246 244 243 243 243 242 240 239 238 237 235 234 233 233 233 234 234 235 235 234 232 230 228 226 224 221 218 219 221 224 225 221 219 219 212 216 222 227 234 235 249 286 284 351 11 41 46 36 31 35 40
296 296 295 294 293 291 290 288 286 284 283 281 280 280 279 278 278 276 275 273 271 270 268 267 265 262 259 257 254 252 252 252 252 252 251 250 249 247 245 243 243 243 243 241 239 238 237 236 234 234 233 233 232 232 233 234 234 233 231 228 226 225 221 218 218 220 224 224 220 221 222 217 220 225 229 235 230 230 244 209 202 5 37 48 42 33 34 40
297 297 296 296 295 294 292 290 288 286 284 282 281 281 280 280 279 278 276 275 273 271 269 267 265 263 261 258 255 253 252 252 251 251 251 251 249 248 246 244 243 242 242 242 240 239 238 237 235 234 233 232 232 231 231 232 233 233 231 229 226 225 222 218 217 219 224 225 220 219 221 221 223 226 236 243 234 228 227 204 188 177 25 43 45 38 35 41
298 298 297 296 295 294 293 292 291 289 286 284 283 282 282 281 281 280 278 276 274 272 270 268 266 264 262 259 256 254 252 252 252 251 251 251 251 249 247 245 244 242 241 241 240 240 239 238 236 235 234 232 232 230 229 230 231 231 231 229 227 226 223 219 217 217 222 225 223 219 218 224 226 226 235 241 234 233 226 205 190 182 203 30 46 41 38 42
299 299 297 296 295 294 293 293 292 290 289 287 285 284 283 283 282 281 279 277 275 273 270 268 266 264 262 260 258 255 253 252 252 252 251 251 251 250 249 247 245 243 241 240 239 240 240 239 237 235 235 233 232 230 229 228 229 230 230 229 228 227 224 220 218 218 221 225 225 221 217 221 225 226 229 230 229 232 227 210 196 191 199 211 44 46 41 42
300 299 298 297 296 295 294 293 292 291 290 288 287 285 284 283 283 282 280 278 276 274 272 269 267 265 263 261 259 256 254 253 252 252 252 251 250 250 250 248 246 244 241 239 238 238 239 239 238 236 236 234 232 231 229 227 227 228 229 230 228 227 226 221 219 220 222 224 226 225 220 219 221 222 220 220 223 226 224 212 200 200 204 209 220 59 54 45
300 300 299 299 297 296 295 294 293 292 291 290 289 287 286 284 283 282 281 280 278 275 273 270 268 266 263 261 258 256 255 254 253 253 252 251 251 250 249 248 247 245 242 240 238 237 238 238 238 237 236 235 233 231 229 227 227 227 227 228 228 227 225 222 220 220 221 224 227 229 227 223 223 220 214 214 218 221 224 220 206 206 210 210 215 195 99 58
301 301 301 300 299 298 297 296 295 294 292 291 290 288 287 285 284 283 282 280 278 276 273 271 268 266 263 261 259 256 255 254 254 253 253 252 251 250 249 248 246 245 243 241 238 237 236 236 236 235 235 234 234 232 230 228 227 226 225 226 226 226 225 222 219 218 219 223 227 229 230 226 224 220 215 215 218 218 226 230 217 210 214 216 217 209 177 119
302 302 302 301 301 300 300 298 297 295 294 293 291 290 288 287 285 284 283 281 279 276 273 271 268 265 263 261 259 257 255 254 253 253 253 252 251 250 249 248 246 244 243 241 239 237 235 235 234 233 234 234 235 233 230 228 227 225 225 225 224 224 224 222 218 214 212 218 217 215 219 218 216 216 216 219 221 221 227 232 223 213 215 221 219 212 196 179
303 304 303 303 303 303 302 301 300 298 297 295 294 292 290 288 287 285 283 282 279 276 273 270 267 265 263 261 259 258 256 254 254 253 253 253 252 251 250 248 247 245 243 241 239 237 236 235 233 233 234 235 236 234 231 228 227 226 225 224 223 223 223 221 217 211 206 208 208 203 209 213 212 216 221 222 223 223 226 229 223 215 215 222 220 215 203 191
304 304 304 305 305 305 304 303 302 301 300 298 296 294 292 290 287 285 284 282 279 276 273 270 267 265 263 261 259 258 257 255 254 254 254 254 253 252 250 249 247 245 243 241 239 238 236 235 234 233 234 235 236 236 232 229 228 226 225 224 223 222 222 220 217 213 206 206 210 209 213 219 219 223 227 227 226 224 223 224 223 216 214 219 219 215 208 196
304 304 305 305 306 306 306 305 304 304 303 301 299 296 293 291 288 286 284 281 279 276 273 270 267 264 262 261 259 258 257 256 256 255 256 256 255 254 252 250 248 246 244 242 240 238 237 236 235 234 233 233 235 236 234 231 229 227 225 224 223 222 222 219 216 215 210 209 215 218 219 224 225 226 227 227 226 224 221 221 220 217 214 218 217 214 212 202
303 304 305 306 306 307 307 306 306 306 305 303 301 298 295 292 289 286 283 281 278 275 272 269 267 264 262 261 260 259 258 258 257 257 257 257 256 255 254 252 250 248 246 244 241 239 238 237 236 234 232 231 232 233 233 231 229 228 226 224 223 222 222 220 217 216 213 212 218 222 221 223 224 225 223 221 223 223 221 219 218 216 214 217 217 213 212 208
303 304 305 306 306 307 307 307 307 307 306 304 303 300 297 293 289 285 282 280 277 274 272 269 266 264 263 261 261 260 260 260 260 259 258 258 257 256 255 253 251 249 247 246 243 241 239 237 236 234 233 231 231 232 231 230 228 228 227 223 222 222 221 220 218 217 214 213 219 222 221 220 221 223 222 221 222 223 221 219 217 215 214 216 217 213 211 210
303 304 305 305 306 306 307 308 308 308 307 306 304 302 298 293 288 283 280 278 275 273 270 268 266 264 263 262 262 261 262 262 262 262 261 260 259 258 257 256 254 251 248 246 245 243 240 238 236 234 233 231 230 231 230 229 229 228 228 224 220 221 220 219 219 218 215 213 217 221 222 221 221 222 223 222 222 222 221 218 215 214 213 214 216 216 211 210
302 304 304 305 306 307 308 308 308 308 307 307 306 304 299 293 286 281 278 275 273 271 269 268 266 264 264 263 263 263 263 264 264 264 263 263 263 262 261 259 257 254 251 248 246 244 242 239 237 235 233 232 231 230 229 228 229 229 229 225 220 219 219 219 219 219 217 214 215 220 221 221 221 221 222 221 222 221 219 217 215 213 212 212 214 216 213 209
302 303 304 305 305 307 308 308 308 308 308 307 307 304 299 293 286 280 277 273 270 268 267 267 266 265 265 265 265 265 264 264 264 265 264 265 264 264 264 262 260 258 255 253 249 246 243 241 238 235 233 232 231 231 229 228 228 229 229 226 221 219 219 219 219 220 219 216 215 218 220 220 220 220 219 219 220 220 216 214 213 212 211 211 212 214 213 209
302 303 304 304 305 307 308 308 308 308 307 307 306 304 299 292 286 280 276 272 270 267 265 265 265 266 266 267 269 269 269 268 268 268 267 267 266 265 264 263 262 261 259 257 254 250 246 243 240 237 234 233 232 232 230 229 229 228 228 227 223 219 219 218 218 218 219 217 215 215 218 218 218 219 218 217 217 217 214 211 211 211 210 211 211 212 212 210
302 302 303 304 305 307 307 307 307 307 306 305 304 303 297 291 285 281 277 272 269 267 265 266 266 267 268 270 271 273 275 275 274 273 272 271 269 268 266 265 264 262 261 260 258 254 251 247 243 239 236 233 231 231 230 230 230 229 228 228 225 221 219 219 218 217 216 217 214 213 215 217 216 217 218 217 216 217 214 211 210 211 211 211 211 210 209 210
301 302 303 304 305 306 307 306 306 306 304 302 301 300 295 289 285 280 276 272 268 266 266 267 269 271 273 274 274 273 274 275 275 274 273 272 270 269 268 267 266 264 262 260 258 256 253 251 247 243 240 236 232 230 229 229 230 230 228 227 225 222 219 219 221 219 216 216 215 212 213 215 215 216 216 216 215 215 214 212 210 211 211 211 211 209 208 209
300 301 302 303 305 305 306 306 306 305 303 299 298 297 292 286 283 278 273 270 267 265 266 269 272 275 279 280 280 278 276 276 276 275 274 274 273 271 269 267 266 265 263 261 259 257 254 252 249 246 244 241 237 233 230 228 229 229 228 227 226 222 219 219 222 221 217 216 216 213 213 214 214 215 215 214 214 213 212 211 210 210 211 211 211 210 208 209
300 301 302 303 304 304 305 305 306 305 301 297 295 293 289 283 280 276 270 266 264 265 267 271 276 279 283 285 286 287 285 282 281 281 280 279 277 275 273 270 268 266 264 262 260 258 256 254 250 248 247 245 242 238 235 231 228 227 226 226 225 223 220 220 221 222 219 216 216 215 213 214 214 213 213 213 213 211 210 210 210 209 210 210 211 211 209 209
299 300 301 302 302 302 303 305 306 304 299 294 292 291 286 281 278 274 268 265 266 267 269 272 277 281 285 287 289 291 291 289 288 286 287 287 286 282 278 275 273 270 268 266 263 261 259 256 254 251 249 247 244 241 239 235 231 228 225 224 224 223 222 221 221 222 220 216 214 214 214 214 214 213 212 212 211 209 208 210 211 210 209 209 211 211 210 210
298 300 300 300 300 301 302 304 306 305 299 293 291 288 284 281 277 271 268 268 268 270 271 273 277 281 284 288 290 294 295 296 296 294 293 295 295 292 287 283 279 276 274 272 269 266 263 260 257 254 251 248 246 242 240 237 234 230 226 224 223 222 222 222 220 221 221 218 215 214 214 214 214 213 212 212 210 208 208 210 212 211 210 209 210 212 211 212
298 298 297 297 298 298 299 304 308 307 301 295 291 287 283 280 275 270 268 269 269 272 275 277 280 284 287 290 293 297 299 301 304 305 302 301 301 299 295 291 287 284 281 279 276 273 269 265 260 256 252 249 246 242 239 236 233 231 228 225 222 221 222 221 220 220 219 219 216 213 213 214 213 212 212 212 210 209 208 209 210 210 210 210 211 212 212 213
296 295 294 294 295 294 297 303 309 310 306 298 292 287 283 279 275 270 270 271 272 275 278 281 285 289 292 294 296 300 302 304 307 310 308 306 305 303 300 297 293 290 288 286 283 279 275 270 264 258 253 249 246 242 239 235 232 229 227 225 222 221 221 220 220 219 218 217 216 213 212 212 212 212 211 211 210 208 207 208 209 210 210 211 213 213 213 213
294 292 292 291 290 291 296 301 306 310 310 303 294 287 284 280 276 272 272 273 276 279 281 284 287 291 294 296 299 303 305 306 309 312 311 310 308 306 302 298 295 293 293 291 289 286 282 276 269 261 255 250 245 242 238 234 231 228 226 224 221 221 221 219 218 218 217 215 215 213 211 211 211 211 210 210 210 208 207 208 209 210 211 212 214 214 213 213
291 289 288 288 287 290 295 299 302 306 308 305 296 289 285 282 277 273 272 273 277 281 282 284 287 291 293 296 299 303 305 307 310 312 312 312 310 308 304 299 295 294 295 295 294 291 288 283 275 267 259 253 246 240 237 233 230 227 224 222 221 220 220 219 217 216 216 215 214 213 212 211 212 210 209 209 210 208 207 208 209 211 212 213 214 214 212 212
288 287 285 284 286 289 293 296 299 300 302 301 296 291 286 282 278 274 273 274 278 281 282 284 287 289 291 294 297 301 304 306 309 310 311 312 311 311 307 300 296 295 296 296 296 295 293 290 283 274 266 259 250 241 236 231 228 226 223 221 219 218 218 219 216 214 215 215 214 213 211 211 212 211 208 208 209 208 207 206 206 210 212 212 213 214 212 212
287 284 283 283 284 288 291 294 295 296 296 296 294 292 288 284 281 278 276 277 280 282 283 284 286 288 289 292 295 298 300 303 306 308 309 310 311 311 308 302 296 295 296 297 298 298 298 297 292 284 274 265 255 245 237 231 227 224 222 220 218 217 217 218 217 213 213 214 214 213 211 211 212 211 209 207 208 208 206 203 203 206 210 213 214 215 214 213
286 283 282 283 284 287 290 291 291 291 291 291 291 290 288 286 283 281 280 280 281 282 282 283 285 287 288 290 293 295 297 300 303 304 306 308 310 311 308 303 297 295 296 299 301 302 303 303 300 292 284 273 261 250 240 233 227 224 221 219 217 216 216 217 217 213 211 212 213 212 211 211 210 210 210 208 207 207 205 202 201 202 206 211 214 217 217 215
284 282 282 283 285 287 289 289 288 288 287 286 285 285 285 285 283 281 281 280 280 281 281 283 284 285 286 288 290 292 294 298 300 301 303 306 308 310 309 304 298 295 297 300 304 306 307 307 306 300 293 282 267 255 245 237 230 225 222 219 216 215 215 216 216 214 210 210 211 210 209 210 210 210 209 208 207 207 204 202 201 200 201 205 207 214 218 215
283 282 282 284 286 288 288 287 287 286 285 283 281 280 279 279 280 281 281 280 280 281 281 282 282 282 284 286 288 290 292 295 296 298 301 303 306 309 309 305 300 296 297 301 305 309 310 310 310 306 300 290 273 258 249 241 233 227 223 219 216 214 214 215 215 213 211 209 210 209 208 209 210 210 210 208 206 206 205 203 202 201 200 203 203 207 213 213
282 282 283 284 286 287 287 286 285 284 283 282 280 278 275 274 275 276 277 279 280 281 281 281 281 281 283 285 286 289 291 293 294 296 299 302 304 306 307 304 300 296 296 300 306 310 312 313 314 312 306 298 282 262 251 244 236 228 224 220 216 214 214 215 214 213 211 210 209 208 206 208 210 210 210 209 207 206 205 203 203 202 201 203 205 206 209 211
282 282 283 284 286 286 285 284 284 283 282 281 281 280 277 276 275 274 274 275 276 277 278 279 280 281 283 284 285 288 290 291 293 295 297 300 302 304 305 302 299 297 296 300 305 310 313 315 316 315 311 304 289 268 254 247 239 231 225 220 216 214 214 214 214 213 212 210 209 207 205 207 209 209 210 210 208 207 206 204 204 204 202 202 204 206 206 209
280 281 281 283 284 284 284 283 282 282 282 282 282 281 280 280 278 276 276 275 275 275 276 277 279 280 282 283 284 286 288 290 292 294 296 298 300 303 303 300 298 297 297 300 305 309 313 316 317 318 315 308 294 273 258 249 241 234 228 222 217 214 213 214 214 213 212 211 209 207 205 206 208 209 209 209 208 207 206 205 205 206 205 203 203 203 202 204
279 280 280 280 281 282 282 282 281 281 282 282 281 280 280 280 279 278 277 276 276 276 276 276 277 279 280 281 283 285 287 289 291 294 296 297 299 301 300 298 297 297 298 300 304 309 313 316 318 319 319 313 297 276 261 250 241 236 231 225 220 217 214 213 214 212 212 211 210 207 205 205 206 208 208 208 208 207 207 206 207 207 206 205 204 203 201 201
278 279 279 278 279 280 281 281 280 280 282 282 281 279 278 278 278 278 277 277 277 277 276 276 277 278 279 280 281 284 286 289 292 294 295 296 298 299 297 295 295 296 296 299 304 308 312 315 318 320 321 315 298 277 262 250 242 236 232 226 223 220 216 214 213 212 211 211 210 208 207 206 206 207 208 208 209 208 208 207 208 208 208 206 205 204 203 203
276 277 277 276 277 279 279 279 279 279 280 281 280 278 277 277 277 277 278 278 278 277 277 277 278 278 278 278 280 282 285 289 292 293 294 295 296 296 293 292 293 293 294 298 303 306 310 314 317 319 320 315 297 277 263 251 241 235 231 226 224 223 219 215 213 212 210 209 209 210 209 207 207 208 208 208 209 209 208 208 208 209 209 208 207 206 204 204
274 274 274 274 275 276 278 278 279 278 279 279 278 277 278 279 280 280 281 280 280 279 279 279 278 278 278 278 279 281 283 287 290 292 293 294 294 293 290 289 290 290 292 297 302 304 307 312 315 318 320 316 300 280 266 254 242 234 229 226 223 222 220 217 214 212 209 206 205 210 212 209 208 209 209 208 208 209 209 209 209 209 210 209 208 207 205 203
271 271 272 272 273 274 276 278 278 277 276 276 276 277 279 281 283 284 285 284 283 282 281 280 279 278 278 278 278 280 282 285 288 290 291 293 292 290 288 286 287 287 290 296 300 302 305 310 314 317 319 318 306 284 267 256 246 237 229 224 221 219 219 216 213 211 208 204 203 208 212 211 208 209 211 209 208 209 209 210 210 210 211 210 209 209 208 205
Height
10933 10933 10933 10933 10933 10933 10932 10932 10933 10933 10933 10932 10932 10932 10932 10933 10933 10933 10933 10933 10934 10934 10934 10935 10936 10937 10938 10939 10940 10942 10943 10945 10947 10948 10950 10951 10952 10955 10958 10959 10960 10962 10964 10966 10967 10969 10972 10974 10977 10979 10981 10983 10985 10987 10989 10990 10991 10992 10993 10994 10996 10997 10997 10997 10998 10998 10999 10999 10998 10998 10998 10998 10999 10999 10998 10997 10996 10995 10994 10992 10990 10988 10987 10985 10982 10980 10978 10976
10932 10932 10932 10932 10932 10932 10932 10931 10931 10931 10931 10931 10931 10931 10931 10931 10931 10931 10931 10932 10932 10932 10932 10933 10934 10934 10935 10936 10937 10939 10940 10942 10943 10945 10946 10947 10949 10951 10955 10956 10957 10959 10961 10963 10964 10966 10969 10971 10974 10977 10978 10981 10983 10985 10987 10988 10989 10991 10992 10994 10995 10996 10997 10997 10997 10998 10999 10999 10998 10997 10998 10998 10999 11000 10999 10999 10998 10997 10995 10994 10992 10990 10989 10986 10984 10983 10980 10978
10931 10931 10931 10931 10931 10931 10930 10930 10930 10930 10929 10929 10929 10929 10929 10929 10929 10929 10929 10930 10930 10930 10930 10930 10931 10932 10932 10933 10935 10936 10937 10939 10940 10942 10943 10944 10946 10948 10951 10953 10954 10956 10958 10959 10961 10963 10966 10968 10970 10973 10976 10978 10981 10982 10984 10986 10987 10989 10991 10993 10994 10995 10996 10996 10997 10998 10999 10999 10998 10998 10998 10998 10999 11000 11000 11000 10999 10999 10997 10995 10993 10992 10990 10988 10986 10985 10983 10980
10930 10930 10930 10930 10929 10929 10929 10929 10928 10928 10928 10927 10927 10927 10927 10927 10927 10927 10927 10927 10928 10928 10928 10928 10928 10929 10930 10931 10932 10933 10934 10936 10937 10939 10940 10941 10942 10944 10946 10949 10950 10952 10954 10956 10958 10960 10962 10965 10967 10970 10973 10975 10977 10979 10982 10984 10985 10987 10989 10991 10993 10994 10995 10995 10997 10998 10999 10999 10998 10998 10998 10998 10999 11000 11001 11001 11000 11000 10999 10997 10995 10993 10992 10990 10988 10986 10984 10982
10929 10929 10928 10928 10928 10927 10927 10927 10926 10926 10926 10925 10925 10925 10925 10925 10925 10925 10925 10925 10925 10925 10925 10926 10926 10926 10927 10928 10929 10930 10931 10933 10934 10936 10937 10938 10939 10940 10942 10944 10946 10948 10950 10952 10954 10957 10959 10962 10964 10966 10969 10971 10974 10976 10979 10982 10983 10985 10987 10990 10991 10993 10994 10994 10996 10998 10998 10997 10998 10998 10998 10999 10999 11000 11001 11001 11001 11001 11000 10999 10997 10995 10993 10992 10990 10988 10986 10985
10927 10927 10927 10926 10926 10925 10925 10924 10924 10924 10923 10923 10923 10922 10922 10922 10922 10922 10922 10922 10922 10922 10923 10923 10923 10924 10925 10925 10926 10927 10928 10930 10931 10932 10933 10934 10935 10936 10938 10940 10942 10944 10946 10948 10951 10953 10956 10958 10961 10962 10964 10967 10971 10974 10977 10979 10980 10983 10985 10987 10990 10991 10992 10993 10995 10997 10996 10996 10997 10998 10998 10998 10999 11000 11001 11001 11001 11001 11001 11000 10999 10996 10995 10994 10992 10990 10989 10987
10926 10925 10925 10924 10924 10923 10923 10922 10922 10921 10921 10920 10920 10920 10919 10919 10919 10919 10919 10919 10920 10919 10920 10920 10921 10921 10922 10923 10923 10924 10925 10926 10927 10928 10929 10930 10931 10933 10934 10936 10938 10940 10942 10944 10947 10950 10953 10955 10957 10958 10960 10964 10968 10970 10973 10975 10978 10980 10982 10985 10988 10989 10990 10992 10994 10995 10996 10996 10997 10998 10998 10998 10999 11000 11001 11001 11001 11001 11001 11002 11000 10998 10997 10995 10994 10993 10991 10990
10924 10924 10923 10922 10922 10921 10920 10920 10919 10918 10918 10917 10917 10917 10916 10916 10916 10916 10916 10916 10916 10916 10917 10917 10918 10918 10919 10920 10920 10921 10922 10922 10923 10925 10926 10927 10928 10929 10931 10932 10934 10936 10937 10940 10943 10947 10950 10952 10953 10954 10957 10960 10964 10966 10970 10972 10975 10977 10980 10983 10985 10987 10989 10991 10993 10994 10995 10996 10997 10998 10998 10998 10998 10999 11001 11001 11001 11001 11001 11002 11002 11000 10998 10997 10996 10994 10993 10992
10922 10922 10921 10920 10920 10919 10918 10917 10916 10916 10915 10914 10914 10913 10913 10913 10912 10912 10912 10912 10913 10913 10913 10914 10914 10915 10915 10916 10917 10918 10918 10918 10920 10920 10921 10923 10924 10925 10926 10928 10930 10932 10933 10936 10939 10943 10946 10947 10949 10951 10953 10956 10959 10962 10966 10969 10971 10974 10977 10980 10983 10985 10987 10989 10991 10993 10994 10995 10996 10997 10997 10998 10998 10999 11000 11001 11001 11001 11001 11002 11003 11001 10999 10998 10998 10996 10995 10993
10920 10919 10918 10918 10917 10916 10915 10915 10914 10913 10912 10911 10911 10910 10910 10909 10909 10909 10909 10909 10909 10909 10909 10910 10910 10911 10912 10912 10913 10914 10913 10914 10915 10915 10916 10918 10920 10921 10922 10924 10926 10927 10929 10932 10936 10940 10942 10943 10945 10947 10950 10952 10955 10958 10962 10965 10968 10971 10974 10977 10980 10982 10985 10987 10989 10992 10993 10994 10996 10996 10996 10997 10997 10998 11000 11001 11001 11002 11001 11002 11003 11002 11000 10999 10999 10998 10996 10995
10917 10917 10916 10915 10914 10913 10912 10911 10910 10910 10909 10908 10907 10907 10906 10905 10905 10905 10905 10905 10905 10905 10906 10906 10906 10907 10907 10908 10909 10909 10909 10910 10910 10911 10912 10914 10916 10918 10919 10920 10921 10923 10925 10928 10932 10936 10936 10938 10940 10943 10946 10948 10951 10955 10958 10961 10964 10967 10971 10974 10977 10980 10982 10985 10987 10990 10991 10992 10995 10995 10995 10996 10996 10997 10999 11000 11001 11001 11001 11002 11003 11002 11001 11000 11000 10999 10998 10997
10914 10914 10913 10912 10911 10910 10909 10908 10907 10906 10905 10904 10904 10903 10902 10901 10901 10901 10901 10901 10901 10901 10901 10901 10902 10902 10902 10903 10905 10905 10905 10905 10905 10906 10908 10909 10911 10914 10915 10916 10917 10919 10921 10925 10929 10931 10931 10933 10936 10938 10941 10945 10947 10951 10954 10957 10960 10963 10967 10970 10974 10977 10980 10983 10985 10987 10988 10990 10993 10993 10994 10995 10995 10996 10997 10999 11000 11001 11001 11002 11002 11002 11001 11000 11000 11000 10999 10998
10912 10911 10910 10908 10907 10906 10905 10904 10903 10902 10901 10900 10900 10899 10898 10897 10897 10897 10897 10897 10897 10897 10897 10897 10897 10897 10898 10899 10900 10901 10901 10900 10901 10902 10903 10905 10907 10909 10911 10912 10914 10916 10918 10921 10925 10926 10926 10929 10931 10934 10938 10941 10943 10947 10950 10952 10955 10958 10962 10966 10970 10973 10976 10980 10982 10984 10986 10988 10990 10992 10993 10993 10994 10995 10996 10998 10999 11000 11001 11002 11002 11002 11001 11001 11001 11001 11000 10999
10909 10908 10906 10905 10904 10903 10901 10900 10899 10898 10897 10896 10895 10895 10894 10893 10893 10893 10892 10892 10892 10892 10892 10892 10892 10892 10893 10894 10895 10896 10896 10896 10897 10898 10899 10900 10902 10904 10906 10908 10910 10912 10914 10917 10920 10921 10921 10924 10927 10930 10934 10936 10939 10943 10946 10948 10950 10953 10957 10962 10966 10969 10973 10978 10980 10982 10984 10986 10988 10990 10992 10992 10993 10994 10995 10997 10998 11000 11001 11001 11002 11002 11001 11001 11001 11001 11001 11000
10906 10905 10903 10902 10900 10899 10898 10897 10896 10894 10893 10892 10891 10890 10890 10889 10889 10888 10888 10888 10887 10887 10887 10887 10887 10888 10888 10889 10890 10891 10892 10892 10892 10894 10895 10896 10897 10898 10900 10903 10905 10908 10910 10913 10915 10916 10917 10920 10923 10926 10928 10931 10934 10937 10940 10943 10945 10949 10953 10958 10963 10966 10970 10975 10978 10980 10982 10984 10986 10989 10991 10991 10992 10993 10994 10996 10998 10999 11000 11001 11001 11001 11001 11001 11001 11001 11001 11000
10903 10901 10900 10898 10897 10895 10894 10893 10892 10890 10889 10887 10887 10886 10885 10885 10884 10883 10883 10883 10882 10882 10883 10883 10883 10883 10883 10884 10885 10886 10887 10887 10888 10889 10890 10891 10892 10893 10895 10898 10900 10903 10906 10908 10911 10912 10913 10915 10919 10922 10923 10926 10929 10931 10934 10937 10940 10945 10949 10954 10959 10963 10968 10973 10976 10978 10980 10982 10984 10987 10989 10990 10991 10992 10993 10994 10996 10998 10999 11000 11000 11001 11001 11001 11001 11001 11001 11001
10899 10898 10896 10894 10893 10891 10890 10889 10888 10886 10885 10883 10882 10881 10880 10880 10879 10879 10878 10878 10877 10877 10878 10878 10878 10878 10879 10879 10880 10881 10882 10882 10883 10884 10885 10886 10888 10889 10890 10892 10894 10897 10900 10903 10906 10907 10908 10911 10915 10917 10919 10921 10922 10924 10927 10932 10937 10943 10947 10952 10956 10960 10964 10969 10973 10975 10978 10980 10982 10985 10986 10987 10989 10990 10991 10993 10995 10996 10998 10999 10999 11000 11001 11002 11002 11002 11001 11001
10896 10894 10892 10890 10889 10887 10886 10884 10883 10882 10880 10878 10877 10876 10875 10875 10874 10874 10873 10872 10872 10872 10873 10873 10873 10873 10874 10874 10875 10875 10876 10877 10878 10879 10880 10881 10883 10884 10885 10887 10889 10891 10894 10897 10900 10902 10904 10907 10910 10912 10914 10914 10916 10918 10922 10929 10936 10940 10944 10947 10951 10956 10960 10964 10968 10972 10975 10978 10980 10982 10983 10985 10987 10988 10989 10991 10992 10994 10996 10997 10998 11000 11001 11002 11002 11002 11002 11002
10892 10890 10888 10886 10884 10883 10881 10880 10878 10877 10876 10874 10872 10871 10870 10869 10869 10869 10868 10867 10867 10867 10867 10868 10868 10868 10869 10869 10869 10870 10872 10873 10873 10874 10875 10876 10877 10878 10879 10881 10883 10885 10888 10891 10894 10896 10899 10901 10904 10906 10907 10907 10910 10913 10920 10927 10931 10935 10939 10942 10946 10950 10954 10960 10964 10969 10973 10976 10976 10978 10981 10982 10983 10985 10987 10989 10990 10992 10995 10996 10997 10999 11000 11002 11002 11002 11003 11003
10888 10886 10884 10882 10880 10878 10877 10875 10873 10872 10870 10868 10867 10865 10865 10864 10864 10863 10862 10862 10861 10861 10862 10862 10862 10863 10863 10864 10864 10865 10866 10867 10868 10868 10869 10870 10871 10872 10873 10875 10877 10879 10881 10884 10887 10890 10892 10895 10897 10899 10899 10902 10906 10910 10917 10922 10926 10930 10933 10937 10941 10945 10949 10954 10960 10966 10970 10971 10973 10975 10976 10975 10977 10981 10985 10987 10989 10991 10993 10995 10996 10998 10999 11001 11002 11002 11003 11003
10884 10882 10880 10878 10876 10874 10872 10870 10868 10866 10864 10863 10861 10860 10859 10859 10858 10858 10857 10856 10856 10856 10856 10857 10857 10857 10857 10858 10859 10860 10861 10862 10862 10863 10863 10864 10866 10867 10868 10869 10871 10873 10875 10878 10881 10883 10886 10888 10890 10892 10895 10899 10903 10906 10912 10917 10920 10925 10928 10931 10935 10939 10943 10948 10955 10961 10964 10965 10967 10968 10967 10968 10973 10977 10981 10984 10986 10989 10991 10993 10995 10996 10998 11000 11001 11002 11003 11003
10880 10878 10876 10873 10871 10869 10867 10865 10863 10861 10859 10857 10855 10855 10854 10853 10852 10852 10852 10851 10850 10850 10850 10851 10852 10852 10852 10853 10853 10854 10855 10856 10857 10857 10858 10859 10860 10861 10862 10863 10864 10866 10868 10871 10874 10877 10879 10881 10884 10888 10892 10896 10898 10901 10907 10911 10915 10920 10923 10926 10929 10933 10936 10942 10950 10954 10956 10959 10960 10961 10962 10965 10970 10974 10977 10980 10983 10986 10989 10991 10993 10994 10996 10998 11000 11002 11002 11003
10876 10874 10871 10869 10867 10865 10862 10860 10858 10856 10853 10851 10850 10849 10848 10847 10847 10846 10846 10845 10844 10844 10845 10845 10846 10846 10847 10847 10848 10849 10850 10850 10852 10852 10853 10854 10854 10855 10856 10857 10858 10860 10862 10864 10867 10870 10872 10875 10879 10884 10888 10891 10893 10896 10901 10906 10910 10913 10916 10919 10923 10926 10930 10937 10945 10947 10952 10956 10955 10957 10959 10960 10965 10970 10974 10978 10980 10983 10986 10989 10991 10993 10994 10996 10998 11000 11002 11003
10871 10869 10867 10864 10862 10860 10858 10856 10853 10851 10848 10846 10844 10843 10843 10842 10841 10841 10840 10840 10839 10839 10839 10840 10840 10841 10841 10842 10843 10844 10844 10845 10847 10848 10848 10848 10849 10850 10850 10851 10852 10854 10855 10858 10861 10863 10866 10870 10873 10877 10881 10884 10887 10889 10894 10899 10903 10905 10908 10913 10917 10920 10925 10933 10937 10941 10948 10952 10952 10953 10955 10957 10963 10967 10971 10975 10977 10980 10983 10986 10988 10990 10992 10994 10996 10999 11000 11002
10867 10865 10863 10860 10858 10856 10853 10851 10849 10846 10843 10841 10839 10838 10837 10837 10836 10836 10835 10834 10834 10834 10834 10835 10835 10836 10836 10837 10838 10839 10839 10840 10841 10842 10843 10843 10843 10844 10844 10846 10847 10848 10850 10852 10854 10857 10860 10862 10865 10870 10874 10877 10880 10882 10886 10891 10894 10898 10901 10905 10910 10915 10921 10927 10930 10935 10943 10947 10948 10950 10952 10956 10960 10963 10968 10971 10973 10977 10980 10982 10985 10987 10989 10992 10994 10997 10998 11000
10863 10861 10858 10856 10853 10851 10849 10847 10844 10841 10838 10836 10834 10833 10832 10832 10831 10831 10830 10830 10830 10830 10829 10830 10831 10831 10832 10833 10833 10834 10835 10836 10836 10837 10838 10838 10838 10838 10839 10840 10841 10842 10844 10846 10848 10850 10852 10855 10858 10863 10866 10870 10873 10875 10880 10884 10888 10891 10892 10897 10904 10910 10916 10921 10925 10930 10938 10942 10944 10945 10949 10953 10957 10960 10964 10967 10970 10973 10976 10979 10982 10984 10987 10990 10992 10994 10997 10998
10858 10856 10854 10851 10849 10847 10845 10843 10840 10837 10834 10831 10830 10829 10828 10827 10827 10826 10826 10826 10826 10826 10826 10826 10826 10827 10828 10828 10829 10831 10831 10832 10832 10833 10833 10833 10834 10834 10834 10834 10835 10836 10838 10840 10842 10843 10845 10848 10852 10855 10859 10863 10865 10868 10872 10877 10882 10883 10884 10891 10899 10905 10910 10916 10921 10926 10932 10938 10940 10941 10945 10949 10952 10956 10959 10962 10966 10968 10972 10975 10978 10981 10984 10987 10990 10992 10994 10996
10853 10851 10849 10847 10844 10843 10841 10838 10836 10833 10830 10827 10826 10825 10824 10823 10822 10822 10822 10822 10822 10823 10823 10822 10823 10823 10824 10825 10825 10827 10828 10828 10828 10829 10829 10829 10829 10829 10829 10829 10829 10831 10833 10834 10835 10837 10839 10842 10845 10848 10852 10855 10858 10861 10866 10871 10874 10874 10878 10886 10894 10900 10906 10912 10917 10922 10927 10932 10935 10936 10939 10942 10946 10951 10954 10957 10961 10964 10968 10972 10974 10978 10981 10984 10987 10989 10992 10994
10849 10846 10844 10842 10840 10839 10837 10834 10832 10829 10826 10824 10822 10821 10820 10819 10819 10819 10819 10819 10819 10820 10820 10819 10820 10820 10820 10821 10822 10823 10823 10824 10825 10825 10825 10825 10825 10825 10825 10824 10825 10826 10828 10829 10830 10831 10834 10836 10838 10842 10845 10849 10853 10856 10860 10865 10864 10867 10874 10882 10889 10897 10902 10907 10911 10915 10917 10920 10923 10926 10930 10935 10940 10945 10948 10952 10957 10961 10965 10968 10971 10975 10978 10980 10983 10986 10989 10992
10844 10842 10840 10837 10835 10834 10832 10830 10827 10825 10822 10820 10819 10817 10817 10816 10815 10815 10815 10816 10816 10817 10817 10816 10816 10817 10817 10818 10819 10819 10820 10820 10821 10821 10821 10821 10821 10820 10820 10820 10820 10821 10822 10823 10824 10826 10828 10829 10831 10835 10840 10843 10846 10850 10854 10856 10857 10863 10871 10876 10884 10892 10896 10899 10900 10901 10903 10904 10909 10917 10923 10929 10934 10938 10943 10949 10953 10958 10961 10965 10968 10971 10974 10977 10980 10983 10986 10989
10839 10837 10835 10833 10831 10829 10828 10825 10823 10821 10819 10817 10815 10814 10814 10813 10812 10812 10812 10812 10813 10814 10814 10813 10813 10813 10814 10814 10815 10816 10817 10817 10817 10817 10817 10817 10816 10816 10815 10815 10816 10816 10817 10818 10819 10821 10822 10823 10826 10830 10833 10835 10839 10842 10846 10848 10852 10859 10866 10870 10876 10882 10887 10890 10888 10889 10893 10896 10904 10913 10918 10923 10928 10933 10939 10945 10949 10953 10957 10961 10964 10967 10970 10973 10977 10980 10983 10986
10835 10833 10831 10828 10827 10825 10823 10821 10820 10817 10815 10813 10812 10811 10811 10810 10810 10810 10809 10809 10810 10810 10811 10810 10810 10810 10810 10810 10810 10811 10813 10813 10813 10813 10813 10812 10811 10810 10810 10810 10810 10811 10811 10812 10813 10814 10815 10816 10820 10823 10824 10827 10830 10835 10838 10841 10846 10853 10859 10863 10867 10873 10879 10880 10878 10882 10888 10894 10900 10907 10912 10917 10923 10928 10934 10939 10944 10948 10953 10956 10960 10964 10967 10970 10974 10977 10980 10983
10830 10828 10826 10824 10822 10821 10819 10818 10816 10814 10812 10810 10809 10808 10808 10807 10807 10807 10807 10807 10807 10808 10808 10807 10807 10807 10807 10807 10806 10806 10807 10808 10809 10809 10808 10807 10806 10805 10804 10804 10804 10805 10805 10806 10806 10807 10807 10809 10813 10815 10815 10818 10821 10825 10830 10834 10839 10845 10851 10854 10858 10864 10869 10870 10870 10875 10882 10889 10895 10901 10908 10913 10916 10921 10927 10933 10939 10944 10948 10952 10956 10960 10963 10967 10970 10973 10976 10979
10825 10823 10821 10819 10818 10816 10815 10814 10813 10811 10808 10807 10805 10805 10805 10805 10805 10805 10805 10804 10804 10805 10805 10805 10804 10804 10804 10803 10803 10803 10802 10802 10803 10803 10803 10802 10800 10799 10798 10798 10798 10798 10798 10798 10798 10799 10799 10801 10804 10805 10806 10808 10811 10815 10820 10825 10831 10837 10842 10846 10851 10857 10860 10861 10864 10868 10873 10882 10889 10896 10902 10905 10909 10915 10922 10929 10935 10939 10944 10948 10952 10956 10960 10963 10966 10969 10972 10975
10820 10818 10816 10815 10813 10812 10811 10811 10810 10808 10805 10804 10802 10802 10802 10802 10802 10802 10802 10802 10802 10803 10803 10803 10802 10802 10802 10801 10800 10799 10798 10797 10797 10797 10797 10797 10794 10792 10791 10791 10791 10790 10790 10789 10789 10790 10790 10791 10793 10794 10795 10797 10800 10804 10809 10814 10820 10826 10832 10837 10843 10848 10850 10853 10857 10861 10868 10877 10884 10891 10895 10897 10903 10911 10918 10924 10929 10934 10940 10944 10948 10952 10956 10959 10961 10964 10968 10971
10815 10813 10811 10810 10809 10808 10808 10807 10806 10805 10803 10801 10800 10799 10799 10799 10799 10799 10800 10800 10800 10800 10800 10800 10799 10799 10798 10797 10797 10796 10795 10794 10793 10791 10790 10790 10789 10786 10784 10784 10783 10783 10782 10781 10780 10780 10780 10780 10782 10782 10782 10784 10787 10792 10797 10802 10808 10816 10821 10826 10832 10837 10840 10845 10850 10856 10863 10871 10877 10882 10886 10890 10898 10905 10911 10917 10923 10929 10935 10939 10943 10947 10951 10954 10957 10960 10964 10967
10810 10808 10807 10806 10806 10805 10804 10804 10803 10802 10800 10798 10797 10797 10796 10797 10797 10797 10797 10797 10797 10798 10797 10797 10796 10795 10794 10793 10792 10792 10790 10789 10789 10787 10785 10784 10783 10780 10778 10777 10776 10775 10775 10774 10773 10772 10771 10771 10771 10772 10772 10773 10776 10780 10785 10791 10798 10804 10808 10815 10823 10828 10830 10837 10843 10849 10856 10862 10868 10873 10877 10884 10891 10898 10905 10911 10917 10924 10929 10934 10938 10942 10946 10950 10954 10957 10960 10963
10805 10804 10803 10803 10802 10801 10801 10801 10800 10799 10797 10795 10794 10794 10794 10794 10794 10794 10794 10794 10794 10795 10794 10793 10792 10792 10790 10788 10787 10787 10786 10785 10784 10782 10780 10779 10777 10775 10773 10772 10770 10770 10769 10767 10766 10765 10764 10763 10762 10763 10763 10763 10766 10770 10775 10780 10786 10791 10796 10805 10813 10816 10820 10827 10834 10840 10848 10854 10861 10866 10871 10878 10884 10890 10898 10906 10912 10919 10924 10929 10934 10939 10943 10947 10950 10953 10956 10959
10800 10799 10799 10799 10798 10798 10798 10798 10797 10796 10795 10793 10792 10791 10791 10791 10792 10792 10791 10791 10791 10791 10791 10790 10789 10789 10787 10785 10783 10782 10781 10780 10780 10778 10776 10775 10773 10771 10769 10767 10766 10765 10764 10762 10761 10759 10757 10755 10755 10755 10756 10756 10758 10761 10766 10770 10774 10779 10785 10792 10798 10804 10810 10816 10823 10832 10840 10847 10853 10859 10865 10873 10878 10883 10892 10900 10907 10913 10919 10925 10930 10935 10939 10943 10946 10949 10952 10955
10796 10795 10795 10795 10795 10795 10795 10795 10794 10793 10792 10790 10789 10788 10788 10788 10788 10789 10788 10788 10788 10788 10788 10786 10785 10785 10784 10782 10780 10778 10777 10776 10775 10774 10773 10771 10769 10768 10765 10763 10761 10760 10759 10758 10756 10754 10751 10749 10748 10748 10748 10749 10750 10754 10757 10760 10763 10767 10773 10779 10786 10794 10800 10806 10814 10824 10832 10839 10845 10852 10860 10867 10871 10878 10886 10893 10900 10908 10914 10921 10927 10930 10934 10938 10941 10944 10947 10951
10793 10792 10791 10791 10791 10792 10792 10791 10791 10790 10789 10787 10786 10785 10785 10785 10785 10785 10785 10785 10785 10785 10784 10783 10781 10781 10780 10779 10777 10775 10773 10772 10771 10770 10768 10767 10765 10764 10762 10759 10756 10755 10755 10753 10751 10749 10746 10743 10742 10742 10742 10742 10743 10745 10748 10749 10752 10756 10761 10768 10776 10784 10791 10797 10804 10813 10823 10831 10839 10847 10854 10860 10865 10873 10881 10887 10894 10901 10909 10917 10922 10927 10933 10937 10939 10940 10943 10947
10789 10788 10787 10787 10788 10788 10788 10788 10787 10786 10785 10784 10783 10782 10782 10781 10781 10781 10781 10782 10781 10781 10780 10779 10777 10776 10775 10775 10774 10771 10769 10768 10767 10765 10763 10763 10761 10760 10758 10755 10752 10750 10749 10748 10747 10744 10742 10739 10737 10736 10736 10736 10737 10738 10740 10741 10742 10746 10751 10758 10766 10774 10781 10786 10793 10803 10813 10821 10830 10838 10846 10853 10859 10866 10873 10880 10887 10895 10904 10911 10916 10923 10930 10934 10936 10937 10939 10942
10785 10784 10783 10783 10784 10784 10784 10783 10782 10782 10781 10780 10780 10779 10778 10777 10777 10777 10777 10777 10777 10777 10776 10775 10774 10772 10770 10770 10769 10768 10765 10763 10763 10761 10759 10758 10757 10755 10753 10751 10748 10746 10744 10743 10742 10740 10738 10735 10733 10731 10730 10731 10731 10731 10733 10734 10735 10738 10743 10750 10756 10764 10772 10777 10783 10793 10802 10810 10819 10827 10836 10845 10851 10858 10864 10872 10880 10888 10896 10903 10908 10916 10920 10921 10924 10928 10931 10936
10781 10779 10778 10778 10779 10779 10779 10779 10778 10777 10776 10776 10776 10776 10774 10773 10772 10772 10772 10772 10772 10772 10771 10770 10769 10767 10765 10765 10764 10764 10762 10760 10758 10756 10754 10753 10752 10751 10749 10746 10744 10741 10740 10739 10737 10736 10733 10731 10729 10727 10726 10726 10726 10726 10726 10728 10729 10732 10736 10742 10748 10754 10762 10767 10773 10783 10792 10800 10807 10816 10828 10837 10844 10851 10858 10865 10872 10879 10886 10893 10899 10906 10908 10908 10911 10917 10922 10929
10776 10775 10773 10773 10774 10774 10774 10773 10773 10773 10772 10770 10771 10770 10769 10769 10769 10768 10767 10766 10766 10766 10765 10764 10764 10763 10761 10759 10758 10758 10758 10757 10755 10752 10749 10748 10747 10746 10745 10742 10740 10737 10736 10735 10733 10731 10729 10727 10725 10723 10721 10721 10721 10721 10720 10721 10723 10726 10729 10734 10740 10745 10750 10756 10764 10773 10782 10789 10797 10808 10821 10829 10836 10844 10851 10857 10864 10870 10876 10883 10889 10894 10898 10901 10907 10911 10916 10922
10771 10770 10769 10768 10768 10769 10768 10768 10768 10768 10767 10766 10765 10765 10764 10764 10764 10763 10762 10762 10761 10760 10759 10759 10758 10757 10757 10755 10753 10753 10753 10752 10751 10749 10746 10743 10742 10742 10740 10738 10735 10733 10731 10731 10730 10728 10725 10723 10722 10720 10718 10716 10716 10715 10715 10715 10718 10720 10722 10726 10732 10737 10741 10748 10756 10764 10773 10781 10789 10802 10813 10821 10827 10835 10842 10849 10856 10862 10869 10875 10879 10884 10889 10896 10902 10906 10910 10915
10766 10766 10764 10763 10763 10763 10763 10763 10763 10763 10762 10761 10761 10760 10759 10759 10758 10758 10757 10756 10755 10755 10754 10754 10753 10752 10751 10750 10748 10748 10748 10747 10746 10745 10742 10740 10738 10736 10735 10733 10731 10729 10727 10726 10726 10724 10722 10720 10718 10716 10714 10712 10710 10709 10709 10710 10712 10714 10716 10719 10724 10728 10734 10740 10747 10755 10764 10774 10784 10795 10805 10811 10819 10827 10834 10841 10848 10855 10862 10867 10871 10875 10882 10889 10894 10899 10904 10908
10760 10760 10760 10759 10758 10758 10757 10757 10758 10758 10757 10756 10756 10756 10755 10753 10753 10752 10751 10750 10750 10750 10749 10748 10748 10747 10745 10744 10742 10742 10742 10741 10740 10740 10738 10736 10734 10732 10730 10729 10727 10725 10723 10721 10721 10720 10718 10716 10715 10713 10711 10708 10705 10703 10704 10705 10706 10708 10710 10714 10718 10721 10726 10732 10737 10746 10757 10768 10779 10790 10797 10803 10811 10819 10827 10834 10841 10848 10854 10859 10863 10867 10873 10881 10887 10893 10898 10902
10754 10754 10755 10755 10754 10753 10752 10752 10752 10753 10752 10751 10750 10750 10749 10749 10748 10747 10746 10745 10744 10744 10743 10742 10742 10742 10740 10738 10736 10736 10736 10736 10735 10734 10733 10732 10730 10728 10726 10725 10723 10721 10719 10718 10717 10715 10714 10712 10711 10710 10708 10704 10700 10698 10698 10700 10701 10703 10705 10709 10712 10716 10720 10726 10731 10740 10751 10762 10775 10785 10791 10798 10806 10812 10819 10827 10834 10840 10846 10851 10855 10860 10867 10873 10880 10886 10892 10896
10748 10748 10749 10749 10749 10749 10748 10747 10747 10747 10747 10746 10745 10744 10744 10744 10743 10742 10741 10739 10739 10739 10737 10736 10737 10736 10734 10732 10731 10730 10730 10731 10730 10729 10728 10727 10726 10724 10722 10721 10719 10718 10716 10715 10713 10712 10710 10709 10707 10706 10704 10701 10697 10694 10693 10695 10696 10697 10700 10703 10706 10709 10715 10721 10728 10735 10744 10757 10772 10782 10788 10796 10803 10807 10812 10819 10825 10831 10837 10842 10848 10854 10860 10866 10872 10878 10884 10889
10742 10742 10743 10743 10744 10744 10743 10743 10742 10742 10742 10741 10739 10739 10738 10739 10738 10737 10736 10734 10733 10733 10732 10731 10731 10730 10728 10726 10725 10725 10726 10726 10725 10724 10723 10722 10721 10719 10718 10717 10716 10714 10712 10711 10710 10709 10707 10705 10704 10703 10701 10697 10693 10690 10689 10690 10691 10692 10694 10697 10699 10703 10709 10715 10722 10729 10738 10752 10767 10775 10779 10788 10798 10803 10807 10811 10816 10822 10828 10834 10840 10845 10851 10857 10862 10868 10874 10879
10736 10736 10736 10737 10738 10738 10738 10738 10737 10737 10737 10735 10734 10733 10734 10734 10733 10732 10731 10730 10728 10727 10726 10725 10724 10724 10723 10721 10720 10720 10721 10721 10721 10719 10718 10717 10716 10715 10713 10713 10712 10710 10709 10708 10707 10706 10704 10702 10700 10699 10697 10693 10690 10687 10685 10685 10686 10687 10687 10690 10694 10697 10702 10708 10715 10722 10731 10743 10754 10758 10762 10772 10784 10792 10798 10803 10808 10813 10819 10824 10830 10835 10841 10846 10851 10857 10863 10869